DW2715 Weather Reports


Display with metric or nautical units.
time (UTC)temp
F
wind
direction
speed
MPH
gust
MPH
rain 1hr
in
rain 24hr
in
rain mn
in
humidity
%
barometer
mb
20260905034530 70 292 0.0 0.0 0.00 0.00 0.00 82 1015.5
20260905034031 71 290 0.0 0.0 0.00 0.00 0.00 82 1015.5
20260905033031 71 290 0.0 0.0 0.00 0.00 0.00 82 1015.5
20260905032531 71 290 0.0 0.0 0.00 0.00 0.00 82 1015.6
20260905032030 71 288 0.0 0.0 0.00 0.00 0.00 82 1015.7
20260905031525 71 286 0.0 2.0 0.00 0.00 0.00 82 1015.6
20260905031020 71 286 0.0 2.0 0.00 0.00 0.00 82 1015.7
20260905030513 71 285 0.0 3.0 0.00 0.00 0.00 82 1015.7
20260905030013 71 284 0.0 3.0 0.00 0.00 0.00 82 1015.6
20260905025512 71 281 0.0 0.0 0.00 0.00 0.00 82 1015.6
20260905025010 71 281 0.0 0.0 0.00 0.00 0.00 82 1015.5
20260905024508 71 281 0.0 0.0 0.00 0.00 0.00 82 1015.4
20260905024005 71 281 0.0 0.0 0.00 0.00 0.00 82 1015.4
20260905023503 71 281 0.0 0.0 0.00 0.00 0.00 82 1015.5
20260905022004 71 200 0.0 0.0 0.00 0.00 0.00 81 1015.4
20260905021504 71 199 0.0 0.0 0.00 0.00 0.00 81 1015.3
20260905021004 71 199 0.0 0.0 0.00 0.00 0.00 81 1015.4
20260905020503 71 199 0.0 0.0 0.00 0.00 0.00 81 1015.3
20260905020002 71 199 0.0 0.0 0.00 0.00 0.00 81 1015.4
20260905015503 71 199 0.0 0.0 0.00 0.00 0.00 81 1015.5
20260905015002 71 199 0.0 0.0 0.00 0.00 0.00 81 1015.5
20260905014504 71 199 0.0 0.0 0.00 0.00 0.00 81 1015.6
20260905014002 71 199 0.0 0.0 0.00 0.00 0.00 81 1015.5
20260905013503 71 199 0.0 0.0 0.00 0.00 0.00 81 1015.6
20260905012959 71 199 0.0 0.0 0.00 0.00 0.00 80 1015.7
20260905012453 71 199 0.0 0.0 0.00 0.00 0.00 80 1015.7
20260905011949 72 199 0.0 0.0 0.00 0.00 0.00 80 1015.6
20260905011449 72 199 0.0 0.0 0.00 0.00 0.00 80 1015.6
20260905010950 72 199 0.0 0.0 0.00 0.00 0.00 80 1015.6
20260905010451 72 199 0.0 0.0 0.00 0.00 0.00 80 1015.7
20260905005947 72 199 0.0 0.0 0.00 0.00 0.00 80 1015.6
20260905005445 72 199 0.0 0.0 0.00 0.00 0.00 80 1015.6
20260905004945 72 199 0.0 0.0 0.00 0.00 0.00 79 1015.6
20260905004445 72 199 0.0 0.0 0.00 0.00 0.00 79 1015.6
20260905003445 72 199 0.0 0.0 0.00 0.00 0.00 78 1015.7
20260905002944 72 199 0.0 0.0 0.00 0.00 0.00 78 1015.8
20260905001945 73 199 0.0 0.0 0.00 0.00 0.00 78 1015.8
20260905001445 73 199 0.0 0.0 0.00 0.00 0.00 78 1015.8
20260905000941 73 199 0.0 0.0 0.00 0.00 0.00 78 1016.0
20260905000441 73 199 0.0 0.0 0.00 0.00 0.00 77 1016.0
20260904235941 73 199 0.0 0.0 0.00 0.00 0.00 77 1016.1
20260904235441 73 199 0.0 0.0 0.00 0.00 0.00 77 1016.1
20260904234941 73 199 0.0 0.0 0.00 0.00 0.00 77 1016.2
20260904234440 73 199 0.0 0.0 0.00 0.00 0.00 77 1016.3
20260904233941 73 199 0.0 0.0 0.00 0.00 0.00 77 1016.2
20260904233440 73 199 0.0 0.0 0.00 0.00 0.00 77 1016.2
20260904232942 74 199 0.0 0.0 0.00 0.00 0.00 76 1016.3
20260904232438 74 130 0.0 0.0 0.00 0.00 0.00 76 1016.3
20260904231937 74 130 0.0 0.0 0.00 0.00 0.00 76 1016.3
20260904231436 74 130 0.0 0.0 0.00 0.00 0.00 76 1016.3
20260904230933 74 130 0.0 0.0 0.00 0.00 0.00 76 1016.4
20260904230432 74 130 0.0 0.0 0.00 0.00 0.00 76 1016.4
20260904225931 74 130 0.0 0.0 0.00 0.00 0.00 75 1016.4
20260904223430 75 26 0.0 0.0 0.00 0.00 0.00 73 1016.6
20260904222422 75 26 0.0 0.0 0.00 0.00 0.00 73 1016.5
20260904221916 75 26 0.0 0.0 0.00 0.00 0.00 72 1016.7
20260904221414 75 26 0.0 0.0 0.00 0.00 0.00 72 1016.6
20260904220913 75 26 0.0 0.0 0.00 0.00 0.00 72 1016.6
20260904220414 76 26 0.0 0.0 0.00 0.00 0.00 72 1016.7
20260904215912 76 26 0.0 0.0 0.00 0.00 0.00 72 1016.7
20260904215412 76 26 0.0 0.0 0.00 0.00 0.00 72 1016.7
20260904214912 76 325 0.0 0.0 0.00 0.00 0.00 72 1016.7
20260904214412 76 325 0.0 0.0 0.00 0.00 0.00 72 1016.7
20260904213913 76 325 0.0 0.0 0.00 0.00 0.00 72 1016.6
20260904212912 76 325 0.0 0.0 0.00 0.00 0.00 72 1016.7
20260904211912 76 325 0.0 0.0 0.00 0.00 0.00 71 1016.7
20260904211413 76 325 0.0 0.0 0.00 0.00 0.00 72 1016.7
20260904210912 76 325 0.0 0.0 0.00 0.00 0.00 71 1016.8
20260904210411 76 325 0.0 0.0 0.00 0.00 0.00 71 1016.8
20260904205908 76 325 0.0 3.0 0.00 0.00 0.00 71 1016.8
20260904205405 76 325 0.0 3.0 0.00 0.00 0.00 70 1016.7
20260904204904 77 206 0.0 0.0 0.00 0.00 0.00 69 1016.7
20260904204403 77 206 0.0 0.0 0.00 0.00 0.00 68 1016.7
20260904203903 77 206 0.0 0.0 0.00 0.00 0.00 67 1016.7
20260904203404 77 206 0.0 0.0 0.00 0.00 0.00 67 1016.7
20260904202903 77 206 0.0 0.0 0.00 0.00 0.00 67 1016.7
20260904202403 78 206 0.0 2.0 0.00 0.00 0.00 67 1016.7
20260904201902 78 206 0.0 2.0 0.00 0.00 0.00 66 1016.7
20260904201402 78 206 0.0 0.0 0.00 0.00 0.00 66 1016.8
20260904200401 78 206 0.0 0.0 0.00 0.00 0.00 65 1016.8
20260904195901 78 206 0.0 0.0 0.00 0.00 0.00 65 1016.9
20260904195401 78 206 0.0 2.0 0.00 0.00 0.00 64 1016.8
20260904194901 78 206 0.0 3.0 0.00 0.00 0.00 64 1016.9
20260904193401 79 205 1.0 6.0 0.00 0.00 0.00 63 1016.8
20260904192902 79 197 1.0 6.0 0.00 0.00 0.00 63 1016.9
20260904192401 79 204 1.0 8.0 0.00 0.00 0.00 62 1016.8
20260904191901 79 194 1.0 8.0 0.00 0.00 0.00 62 1016.8
20260904191401 79 205 1.0 5.0 0.00 0.00 0.00 62 1016.8
20260904190902 79 194 0.0 5.0 0.00 0.00 0.00 62 1016.8
20260904190401 80 192 0.0 2.0 0.00 0.00 0.00 62 1016.8
20260904185901 80 185 0.0 2.0 0.00 0.00 0.00 62 1016.9
20260904185401 80 185 0.0 3.0 0.00 0.00 0.00 61 1016.8
20260904184901 80 187 0.0 3.0 0.00 0.00 0.00 61 1016.7
20260904184400 80 189 0.0 0.0 0.00 0.00 0.00 60 1016.7
20260904183348 81 196 0.0 3.0 0.00 0.00 0.00 59 1016.7
20260904182349 82 180 0.0 2.0 0.00 0.00 0.00 59 1016.6
20260904181346 82 164 0.0 0.0 0.00 0.00 0.00 58 1016.5
20260904180844 83 149 0.0 0.0 0.00 0.00 0.00 58 1016.5
20260904180343 83 149 0.0 0.0 0.00 0.00 0.00 57 1016.4
20260904175340 83 148 0.0 0.0 0.00 0.00 0.00 56 1016.4
20260904174840 84 146 0.0 0.0 0.00 0.00 0.00 55 1016.3
20260904173836 85 146 0.0 3.0 0.00 0.00 0.00 53 1016.3
20260904173336 85 150 0.0 3.0 0.00 0.00 0.00 53 1016.2
20260904172837 85 123 0.0 0.0 0.00 0.00 0.00 52 1016.3
20260904172334 86 126 0.0 0.0 0.00 0.00 0.00 52 1016.3
20260904171330 86 160 0.0 3.0 0.00 0.00 0.00 50 1016.3
20260904170829 87 175 0.0 3.0 0.00 0.00 0.00 49 1016.4
20260904170329 87 135 0.0 4.0 0.00 0.00 0.00 49 1016.4
20260904165829 87 115 0.0 4.0 0.00 0.00 0.00 49 1016.5
20260904164824 87 120 0.0 5.0 0.00 0.00 0.00 49 1016.5
20260904164318 88 152 1.0 6.0 0.00 0.00 0.00 48 1016.5
20260904163812 88 145 1.0 6.0 0.00 0.00 0.00 48 1016.5
20260904163306 88 126 1.0 6.0 0.00 0.00 0.00 47 1016.6
20260904162804 88 199 1.0 7.0 0.00 0.00 0.00 47 1016.5
20260904162306 88 115 1.0 7.0 0.00 0.00 0.00 46 1016.5
20260904161804 88 138 2.0 12.0 0.00 0.00 0.00 46 1016.5
20260904161304 88 153 2.0 12.0 0.00 0.00 0.00 47 1016.6
20260904160805 88 135 1.0 8.0 0.00 0.00 0.00 49 1016.6
20260904160303 88 135 1.0 9.0 0.00 0.00 0.00 51 1016.5
20260904155803 88 114 1.0 9.0 0.00 0.00 0.00 51 1016.6
20260904155302 88 102 2.0 9.0 0.00 0.00 0.00 52 1016.6
20260904154802 88 135 2.0 13.0 0.00 0.00 0.00 53 1016.7
20260904154302 88 100 1.0 13.0 0.00 0.00 0.00 52 1016.7
20260904153802 89 123 1.0 7.0 0.00 0.00 0.00 53 1016.7
20260904153303 89 116 1.0 8.0 0.00 0.00 0.00 53 1016.7
20260904151801 88 142 3.0 11.0 0.00 0.00 0.00 54 1016.8
20260904150802 88 131 3.0 10.0 0.00 0.00 0.00 51 1016.8
20260904150302 89 161 3.0 10.0 0.00 0.00 0.00 50 1016.8
20260904145802 89 89 3.0 10.0 0.00 0.00 0.00 49 1016.9
20260904145301 89 92 3.0 9.0 0.00 0.00 0.00 49 1016.9
20260904144801 89 133 3.0 10.0 0.00 0.00 0.00 50 1016.9
20260904143801 89 240 3.0 10.0 0.00 0.00 0.00 50 1017.0
20260904142801 89 92 4.0 12.0 0.00 0.00 0.00 50 1017.1
20260904142305 89 137 4.0 11.0 0.00 0.00 0.00 52 1017.2
20260904141801 89 107 3.0 12.0 0.00 0.00 0.00 53 1017.2
20260904141300 89 90 3.0 12.0 0.00 0.00 0.00 53 1017.2
20260904140802 89 112 3.0 12.0 0.00 0.00 0.00 55 1017.3
20260904140301 89 111 4.0 14.0 0.00 0.00 0.00 55 1017.5
20260904135801 89 72 4.0 14.0 0.00 0.00 0.00 53 1017.5
20260904135301 89 126 2.0 12.0 0.00 0.00 0.00 50 1017.6
20260904134800 90 130 3.0 12.0 0.00 0.00 0.00 51 1017.6
20260904134301 89 98 4.0 12.0 0.00 0.00 0.00 52 1017.6
20260904133801 89 131 4.0 12.0 0.00 0.00 0.00 54 1017.6
20260904133301 89 106 4.0 11.0 0.00 0.00 0.00 54 1017.7
20260904132800 90 103 2.0 11.0 0.00 0.00 0.00 53 1017.7
20260904132301 90 186 2.0 11.0 0.00 0.00 0.00 55 1017.7
20260904131301 90 119 3.0 11.0 0.00 0.00 0.00 55 1017.8
20260904130801 90 123 2.0 11.0 0.00 0.00 0.00 55 1017.9
20260904130301 90 118 2.0 9.0 0.00 0.00 0.00 54 1017.8
20260904125801 90 265 2.0 11.0 0.00 0.00 0.00 54 1017.9
20260904125301 91 80 2.0 11.0 0.00 0.00 0.00 52 1018.0
20260904124801 92 99 1.0 9.0 0.00 0.00 0.00 50 1018.1
20260904124303 93 117 1.0 6.0 0.00 0.00 0.00 49 1018.1
20260904123800 94 184 1.0 5.0 0.00 0.00 0.00 49 1018.1
20260904123301 94 128 1.0 10.0 0.00 0.00 0.00 46 1018.1
20260904122301 93 190 1.0 8.0 0.00 0.00 0.00 40 1018.2
20260904121801 92 182 0.0 4.0 0.00 0.00 0.00 43 1018.2
20260904121302 92 232 1.0 13.0 0.00 0.00 0.00 42 1018.2
20260904120802 92 233 1.0 13.0 0.00 0.00 0.00 41 1018.2
20260904120301 92 106 0.0 6.0 0.00 0.00 0.00 44 1018.3
20260904115801 91 134 0.0 6.0 0.00 0.00 0.00 45 1018.4
20260904115301 92 297 1.0 7.0 0.00 0.00 0.00 44 1018.3
20260904114801 92 238 1.0 7.0 0.00 0.00 0.00 44 1018.4
20260904114301 91 238 0.0 0.0 0.00 0.00 0.00 46 1018.4
20260904113301 91 115 1.0 5.0 0.00 0.00 0.00 45 1018.6
20260904112803 91 190 1.0 11.0 0.00 0.00 0.00 47 1018.7
20260904112305 90 180 1.0 11.0 0.00 0.00 0.00 47 1018.8
20260904111801 90 253 0.0 9.0 0.00 0.00 0.00 47 1018.8
20260904111303 90 207 0.0 3.0 0.00 0.00 0.00 49 1018.8
20260904105248 89 182 1.0 7.0 0.00 0.00 0.00 51 1018.9
20260904104742 89 161 1.0 7.0 0.00 0.00 0.00 50 1019.0
20260904103742 89 202 0.0 6.0 0.00 0.00 0.00 50 1019.1
20260904103242 88 161 0.0 0.0 0.00 0.00 0.00 50 1019.1
20260904102740 88 179 0.0 0.0 0.00 0.00 0.00 52 1019.1
20260904102239 87 252 0.0 0.0 0.00 0.00 0.00 51 1019.2
20260904101239 87 187 0.0 0.0 0.00 0.00 0.00 52 1019.2
20260904100741 87 217 0.0 0.0 0.00 0.00 0.00 52 1019.2
20260904100237 87 216 0.0 0.0 0.00 0.00 0.00 52 1019.2
20260904095737 87 248 0.0 0.0 0.00 0.00 0.00 52 1019.2
20260904095237 87 115 0.0 0.0 0.00 0.00 0.00 52 1019.2
20260904094738 86 157 0.0 0.0 0.00 0.00 0.00 52 1019.2
20260904094237 86 209 0.0 0.0 0.00 0.00 0.00 52 1019.3
20260904092731 85 173 0.0 4.0 0.00 0.00 0.00 52 1019.5
20260904092232 85 225 0.0 2.0 0.00 0.00 0.00 54 1019.5
20260904091730 85 140 0.0 2.0 0.00 0.00 0.00 56 1019.5
20260904091230 84 178 0.0 0.0 0.00 0.00 0.00 57 1019.5
20260904090724 84 170 0.0 0.0 0.00 0.00 0.00 57 1019.5
20260904085211 83 101 0.0 0.0 0.00 0.00 0.00 58 1019.5
20260904084710 83 154 0.0 0.0 0.00 0.00 0.00 59 1019.5
20260904084207 82 140 0.0 0.0 0.00 0.00 0.00 59 1019.5
20260904083708 82 152 0.0 2.0 0.00 0.00 0.00 58 1019.6
20260904083208 82 155 0.0 2.0 0.00 0.00 0.00 60 1019.6
20260904082706 81 177 0.0 0.0 0.00 0.00 0.00 61 1019.6
20260904082205 81 125 0.0 0.0 0.00 0.00 0.00 61 1019.5
20260904081703 80 23 0.0 0.0 0.00 0.00 0.00 60 1019.5
20260904081202 80 60 0.0 0.0 0.00 0.00 0.00 61 1019.5
20260904075700 78 339 0.0 0.0 0.00 0.00 0.00 62 1019.5
20260904075158 78 339 0.0 0.0 0.00 0.00 0.00 62 1019.5
20260904074658 78 338 0.0 0.0 0.00 0.00 0.00 63 1019.4
20260904074159 77 0 0.0 0.0 0.00 0.00 0.00 64 1019.5
20260904073659 77 0 0.0 0.0 0.00 0.00 0.00 64 1019.4
20260904073158 77 355 0.0 0.0 0.00 0.00 0.00 65 1019.4
20260904072656 76 355 0.0 0.0 0.00 0.00 0.00 65 1019.4
20260904072156 76 355 0.0 0.0 0.00 0.00 0.00 66 1019.3
20260904071656 76 0 0.0 0.0 0.00 0.00 0.00 66 1019.4
20260904070656 75 0 0.0 0.0 0.00 0.00 0.00 67 1019.4
20260904070156 75 31 0.0 0.0 0.00 0.00 0.00 67 1019.4
20260904065657 75 30 0.0 0.0 0.00 0.00 0.00 68 1019.4
20260904065152 74 349 0.0 0.0 0.00 0.00 0.00 69 1019.3
20260904064152 74 0 0.0 0.0 0.00 0.00 0.00 70 1019.3
20260904063652 74 19 0.0 2.0 0.00 0.00 0.00 70 1019.3
20260904062152 73 337 0.0 0.0 0.00 0.00 0.00 73 1019.2
20260904061652 72 337 0.0 0.0 0.00 0.00 0.00 73 1019.2
20260904060655 71 338 0.0 0.0 0.00 0.00 0.00 74 1019.1
20260904060150 71 338 0.0 0.0 0.00 0.00 0.00 75 1019.1
20260904055148 71 319 0.0 0.0 0.00 0.00 0.00 75 1019.1
20260904054648 71 302 0.0 0.0 0.00 0.00 0.00 75 1019.1
20260904054146 71 302 0.0 0.0 0.00 0.00 0.00 75 1019.1
20260904053646 71 319 0.0 0.0 0.00 0.00 0.00 75 1019.1
20260904053146 71 11 0.0 0.0 0.00 0.00 0.00 75 1019.1
20260904052644 71 313 0.0 0.0 0.00 0.00 0.00 75 1019.1
20260904052142 70 312 0.0 1.0 0.00 0.00 0.00 75 1019.0
20260904051641 70 313 0.0 1.0 0.00 0.00 0.00 75 1019.0
20260904051142 70 274 0.0 0.0 0.00 0.00 0.00 75 1018.9
20260904050640 70 274 0.0 0.0 0.00 0.00 0.00 75 1018.9
20260904050138 70 274 0.0 0.0 0.00 0.00 0.00 76 1018.9
20260904045638 70 274 0.0 0.0 0.00 0.00 0.00 76 1018.9
20260904045138 70 274 0.0 0.0 0.00 0.00 0.00 76 1018.9
20260904044636 70 271 0.0 0.0 0.00 0.00 0.00 76 1018.8
20260904043633 70 271 0.0 0.0 0.00 0.00 0.00 76 1018.8
20260904043129 70 271 0.0 0.0 0.00 0.00 0.00 76 1018.8
20260904042623 70 271 0.0 0.0 0.00 0.00 0.00 75 1018.7
20260904042122 70 271 0.0 0.0 0.00 0.00 0.00 75 1018.7
20260904041620 70 271 0.0 0.0 0.00 0.00 0.00 74 1018.6
20260904041118 70 271 0.0 0.0 0.00 0.00 0.00 74 1018.6
20260904040617 71 271 0.0 0.0 0.00 0.00 0.00 74 1018.6
20260904035612 71 322 0.0 0.0 0.00 0.00 0.00 74 1018.7
20260904035110 71 19 0.0 0.0 0.00 0.00 0.00 73 1018.7